Regional Weather Roundup
Issued by NWS

Home | Current Version | Previous Version | Graphics & Text | Print | Product List | Glossary On
Versions: 1 2 3 4 5 6 7 8 9 10 11 12 13 14 15 16 17 18 19 20 21 22 23 24 25 26 27 28 29 30 31 32 33 34 35 36 37 38 39 40 41 42 43 44 45 46 47 48 49 50
000
ASUS43 KFSD 270510
RWRSD

WEATHER ROUNDUP FOR SOUTH DAKOTA
NATIONAL WEATHER SERVICE SIOUX FALLS SD
1100 PM CST MON JAN 26 2015

NOTE: "FAIR" INDICATES FEW OR NO CLOUDS BELOW 12,000 FEET WITH NO
SIGNIFICANT WEATHER AND/OR OBSTRUCTIONS TO VISIBILITY.


SDZ001>005-009-010-012>017-270600-
NORTHWEST AND NORTH CENTRAL SOUTH DAKOTA

CITY           SKY/WX    TMP DP  RH WIND       PRES   REMARKS
BUFFALO          N/A     43  33  68 W7        29.88S
FAITH            N/A     41  30  65 S14       29.94S
MOBRIDGE       PTCLDY    33  29  85 SE5       29.96S WCI  29
$$

SDZ012>016-024>037-041>051-057-063-072>074-270600-
SOUTHWEST AND SOUTH CENTRAL SOUTH DAKOTA

CITY           SKY/WX    TMP DP  RH WIND       PRES   REMARKS
RAPID CTY ARPT CLEAR     46  27  47 W3        29.97F
PIERRE         CLEAR     29  26  89 E5        29.98R WCI  24
CUSTER         CLEAR     49  24  37 W7        30.08F
ELLSWORTH AFB  CLEAR     44  27  51 W6        29.97F
PHILIP         CLEAR     32  27  81 W3        29.96F
PINE RIDGE     CLEAR     34  28  79 W5        30.04R WCI  30
SPEARFISH      FAIR      52  27  37 W6        30.01S
WINNER         FAIR      40  29  64 S8        30.01S
$$

SDZ004>011-016>023-039-040-270600-
NORTHEAST SOUTH DAKOTA

CITY           SKY/WX    TMP DP  RH WIND       PRES   REMARKS
ABERDEEN       CLEAR     30  28  92 CALM      30.03R
WATERTOWN      CLEAR     29  27  92 CALM      30.01R
SISSETON         N/A     29  29 100 N3        30.02R
$$

SDZ017-020-022-023-036>040-048>070-270600-
SOUTHEAST SOUTH DAKOTA

CITY           SKY/WX    TMP DP  RH WIND       PRES   REMARKS
SIOUX FALLS    PTCLDY    31  29  92 NW5       30.02R WCI  26
HURON          PTCLDY    29  27  92 CALM      30.03R
CHAMBERLAIN    CLEAR     32  28  86 CALM      30.02R
MITCHELL       CLEAR     32  29  88 N3        30.05R
YANKTON        CLEAR     36  30  80 NW5       30.06R
$$

ABBREVIATIONS USED IN REMARKS
   TC - TEMPERATURE IN CELSIUS
  WCI - WIND CHILL INDEX
   HX - HEAT INDEX
  VSB - VISIBILITY



USA.gov is the U.S. government's official web portal to all federal, state and local government web resources and services.